Location: Notre Dame Regional High School Observatory
(37.3056°N, 89.6097°W)
Time: 18:17:43
(UTC-06:00)

Okean-O - Visible Passes

Search period start: 24 February 2017 00:00
Search period end: 06 March 2017 00:00
Orbit: 639 x 642 km, 98.2° (Epoch: 24 February)

Date Brightness Start Highest point End Pass type
(mag) Time Alt. Az. Time Alt. Az. Time Alt. Az.
24 Feb 5.3 03:32:30 10° NE 03:35:19 16° E 03:35:44 16° E visible
24 Feb 3.0 05:07:48 10° N 05:11:56 39° WNW 05:13:21 30° WSW visible
25 Feb 4.4 03:55:09 10° NE 03:59:03 29° E 03:59:51 28° ESE visible
25 Feb 3.8 05:31:55 10° NNW 05:35:21 22° WNW 05:37:29 16° WSW visible
26 Feb 3.2 04:18:20 10° NNE 04:22:42 55° E 04:24:00 40° SSE visible
26 Feb 4.4 05:56:42 10° NW 05:58:41 13° WNW 06:00:41 10° W visible
27 Feb 2.5 04:41:51 10° N 04:46:17 79° WNW 04:48:07 35° SSW visible
28 Feb 5.3 03:30:31 10° ENE 03:33:08 15° E 03:34:38 13° ESE visible
28 Feb 3.0 05:05:36 10° N 05:09:47 42° WNW 05:12:14 22° SW visible
01 Mar 4.5 03:53:03 10° NE 03:56:52 28° E 03:58:45 20° SE visible
01 Mar 3.7 05:29:40 10° NNW 05:33:13 24° WNW 05:36:22 12° WSW visible
02 Mar 3.4 04:16:12 10° NNE 04:20:32 51° E 04:22:52 25° SSE visible
02 Mar 4.4 05:54:19 10° NW 05:56:33 14° WNW 05:58:47 10° W visible
03 Mar 2.5 04:39:40 10° N 04:44:07 85° WNW 04:47:00 22° SSW visible
04 Mar 5.5 03:28:31 10° ENE 03:30:57 14° E 03:33:21 10° SE visible
04 Mar 2.9 05:03:24 10° N 05:07:38 45° WNW 05:11:08 14° SW visible
05 Mar 4.6 03:50:58 10° NE 03:54:42 26° E 03:57:38 14° SSE visible
05 Mar 3.7 05:27:26 10° NNW 05:31:04 25° WNW 05:34:41 10° SW visible
